Tracking 25949 objects as of 8-Aug-2022
HD Live streaming from Space Station
objects crossing your sky now

COSMOS 1275 DEB

Track COSMOS 1275 DEB now!
10-day predictions


NORAD ID: 17642
Int'l Code: 1981-053LQ
Perigee: 779.9 km
Apogee: 839.9 km
Inclination: 82.9 °
Period: 100.9 minutes
Semi major axis: 7180 km
RCS: 0.0092 m2 (small)
Launch date: June 4, 1981
Source: Commonwealth of Independent States (former USSR) (CIS)
Launch site: PLESETSK MISSILE AND SPACE COMPLEX (PKMTR)

Note: This is SATELLITE DEBRIS
aabbcc
Your satellite tracking list
Your tracking list is empty




NASA's NSSDC Master Catalog

Two Line Element Set (TLE):
1 17642U 81053LM  22219.93630939  .00001451  00000-0  58751-3 0  9995
2 17642  82.8685 196.0010 0041773 118.8506 241.6881 14.26709577934988
Source of the keplerian elements: AFSPC